Location: Casilda
(33.0440°S, 61.1680°W)
Time: 19:31:25
(UTC-03:00)

ISS - Pass Details

Date: 27 November 2023
Orbit: 415 x 417 km, 51.6° (Epoch: 04 December)

Event Time Altitude Azimuth Distance (km) Brightness Sun altitude
Exits shadow 04:06:55 14° 232° (SW) 1,304 -1.4 -18.7°
Maximum altitude 04:07:55 15° 212° (SSW) 1,235 -1.3 -18.5°
Drops below altitude 10° 04:10:01 10° 173° (S) 1,518 -0.3 -18.2°
Sets 04:12:48 0° 149° (SSE) 2,388 1.5 -17.7°
